Location: Unspecified
(0.0000°N, 0.0000°E)
Time: 12:20:14
(UTC+00:00)

A-11 Canister half - All Passes

Search period start: 07 October 2022 00:00
Search period end: 17 October 2022 00:00
Orbit: 1516 x 1684 km, 47.2° (Epoch: 06 October)

Date Brightness Start Highest point End Pass type
(mag) Time Alt. Az. Time Alt. Az. Time Alt. Az.
07 Oct - 02:36:24 10° N 02:43:05 22° NE 02:49:46 10° E visible
07 Oct - 04:38:40 10° NW 04:47:51 73° SW 04:57:18 10° SSE visible
07 Oct - 06:49:33 10° WSW 06:53:12 13° SW 06:56:55 10° SSW daylight
07 Oct - 15:24:42 10° SSW 15:34:31 52° SE 15:44:07 10° ENE daylight
07 Oct - 17:30:28 10° WSW 17:39:23 35° NW 17:48:08 10° NNE daylight
08 Oct - 02:13:53 10° N 02:20:07 20° NE 02:26:22 10° E visible
08 Oct - 04:15:43 10° NW 04:24:57 79° SW 04:34:24 10° SE visible
08 Oct - 06:25:42 10° WSW 06:30:11 14° SW 06:34:45 10° SSW daylight
08 Oct - 15:01:53 10° SSW 15:11:33 48° SE 15:21:03 10° ENE daylight
08 Oct - 17:07:16 10° WSW 17:16:25 39° NW 17:25:24 10° NNE daylight
09 Oct - 01:51:25 10° N 01:57:09 18° NE 02:02:53 10° E visible
09 Oct - 03:52:48 10° NW 04:02:03 86° SW 04:11:30 10° SE visible
09 Oct - 06:02:02 10° W 06:07:11 16° SW 06:12:26 10° S daylight
09 Oct - 14:39:03 10° SSW 14:48:34 44° SE 14:57:56 10° ENE daylight
09 Oct - 16:44:05 10° WSW 16:53:27 42° NW 17:02:39 10° NNE daylight
10 Oct - 01:29:02 10° NNE 01:34:10 16° NE 01:39:19 10° E visible
10 Oct - 03:29:54 10° NW 03:39:08 88° NE 03:48:34 10° SE visible
10 Oct - 05:38:29 10° W 05:44:11 18° SW 05:50:00 10° S daylight
10 Oct - 14:16:16 10° SSW 14:25:36 40° SE 14:34:48 10° ENE daylight
10 Oct - 16:20:56 10° WSW 16:30:29 46° NW 16:39:53 10° NNE daylight
11 Oct - 01:06:44 10° NNE 01:11:11 14° NE 01:15:38 10° ENE visible
11 Oct - 03:07:00 10° NW 03:16:15 81° NE 03:25:38 10° SE visible
11 Oct - 05:15:01 10° W 05:21:12 20° SW 05:27:31 10° S visible
11 Oct - 13:53:30 10° SSW 14:02:37 37° SE 14:11:38 10° ENE daylight
11 Oct - 15:57:48 10° WSW 16:07:31 50° NW 16:17:05 10° NNE daylight
12 Oct - 00:44:38 10° NNE 00:48:11 13° NE 00:51:45 10° ENE visible
12 Oct - 02:44:08 10° NW 02:53:21 75° NE 03:02:40 10° SE visible
12 Oct - 04:51:38 10° W 04:58:14 22° SW 05:04:58 10° S visible
12 Oct - 13:30:45 10° SSW 13:39:39 34° SE 13:48:26 10° ENE daylight
12 Oct - 15:34:43 10° SW 15:44:34 55° NW 15:54:16 10° NNE daylight
13 Oct - 00:22:54 10° NNE 00:25:11 11° NE 00:27:27 10° ENE night (unlit)
13 Oct - 02:21:16 10° NNW 02:30:27 69° NE 02:39:41 10° SE visible
13 Oct - 04:28:18 10° W 04:35:16 24° SW 04:42:22 10° S visible
13 Oct - 13:08:02 10° S 13:16:39 31° SE 13:25:12 10° ENE daylight
13 Oct - 15:11:39 10° SW 15:21:36 60° NW 15:31:26 10° NNE daylight
14 Oct - 01:58:26 10° NNW 02:07:32 63° NE 02:16:42 10° SE visible
14 Oct - 04:05:01 10° W 04:12:18 26° SW 04:19:45 10° S visible
14 Oct - 12:45:20 10° S 12:53:40 29° SE 13:01:56 10° ENE daylight
14 Oct - 14:48:36 10° SW 14:58:39 65° NW 15:08:35 10° NNE daylight
14 Oct - 17:01:32 10° WNW 17:04:12 11° NW 17:06:51 10° NNW daylight
15 Oct - 01:35:37 10° NNW 01:44:38 58° NE 01:53:41 10° SE visible
15 Oct - 03:41:46 10° WNW 03:49:22 29° SW 03:57:05 10° S visible
15 Oct - 12:22:41 10° S 12:30:40 26° SE 12:38:36 10° E daylight
15 Oct - 14:25:35 10° SW 14:35:41 70° NW 14:45:43 10° NNE daylight
15 Oct - 16:37:10 10° WNW 16:41:08 13° NW 16:45:06 10° NNW daylight
16 Oct - 01:12:48 10° NNW 01:21:44 53° NE 01:30:39 10° SE visible
16 Oct - 03:18:33 10° WNW 03:26:25 31° SW 03:34:25 10° S visible
16 Oct - 12:00:03 10° S 12:07:39 24° SE 12:15:14 10° E daylight
16 Oct - 14:02:34 10° SW 14:12:43 76° NW 14:22:49 10° NE daylight
16 Oct - 16:13:11 10° WNW 16:18:06 14° NW 16:23:00 10° NNW daylight
